Location: Pittman
(37.9557°N, 80.9209°W)
Time: 14:00:48
(UTC+00:00)

Envisat - Pass Details

Date: 24 April 2026
Orbit: 761 x 762 km, 98.4° (Epoch: 15 May)

Event Time Altitude Azimuth Distance (km) Brightness Sun altitude
Rises 08:57:49 0° 359° (N) 3,230 6.7 -18.3°
Reaches altitude 10° 09:00:27 10° 347° (NNW) 2,300 5.7 -17.9°
Maximum altitude 09:04:33 26° 293° (WNW) 1,483 4.2 -17.2°
Enters shadow 09:05:44 23° 271° (W) 1,564 4.1 -17.0°
